N6OL Weather Reports


Display with metric or nautical units.
time (UTC)temp
F
wind
direction
speed
MPH
gust
MPH
rain 1hr
in
rain 24hr
in
rain mn
in
humidity
%
barometer
mb
20260507015004 60 289 8.0 18.0 0.00 0.00 0.00 78 1018.1
20260507014503 60 292 8.0 18.0 0.00 0.00 0.00 77 1018.1
20260507014024 61 291 7.0 15.0 0.00 0.00 0.00 77 1018.2
20260507013503 61 284 8.0 15.0 0.00 0.00 0.00 76 1018.0
20260507013003 61 284 9.0 16.0 0.00 0.00 0.00 76 1018.1
20260507012503 62 289 7.0 16.0 0.00 0.00 0.00 75 1018.0
20260507012003 62 291 7.0 15.0 0.00 0.00 0.00 75 1018.0
20260507011503 62 290 8.0 15.0 0.00 0.00 0.00 75 1018.0
20260507011003 62 289 7.0 14.0 0.00 0.00 0.00 74 1018.1
20260507010503 63 289 7.0 13.0 0.00 0.00 0.00 74 1018.0
20260507010024 63 298 7.0 14.0 0.00 0.00 0.00 74 1018.0
20260507005524 63 303 7.0 15.0 0.00 0.00 0.00 74 1018.0
20260507005003 63 297 7.0 15.0 0.00 0.00 0.00 73 1017.9
20260507004524 63 295 8.0 16.0 0.00 0.00 0.00 73 1017.9
20260507004003 63 299 8.0 16.0 0.00 0.00 0.00 73 1017.9
20260507003503 64 300 8.0 15.0 0.00 0.00 0.00 72 1017.8
20260507003003 64 295 8.0 16.0 0.00 0.00 0.00 72 1017.8
20260507002524 64 301 9.0 16.0 0.00 0.00 0.00 73 1017.7
20260507002003 64 303 10.0 17.0 0.00 0.00 0.00 72 1017.7
20260507001503 64 303 9.0 17.0 0.00 0.00 0.00 72 1017.8
20260507001024 64 303 8.0 14.0 0.00 0.00 0.00 71 1017.9
20260507000503 64 300 8.0 15.0 0.00 0.00 0.00 71 1017.8
20260507000003 64 300 8.0 16.0 0.00 0.00 0.00 71 1017.9
20260506235503 64 299 9.0 16.0 0.00 0.00 0.00 71 1017.9
20260506235003 65 303 9.0 16.0 0.00 0.00 0.00 71 1018.0
20260506234503 65 303 9.0 16.0 0.00 0.00 0.00 71 1018.0
20260506234003 65 293 9.0 15.0 0.00 0.00 0.00 70 1017.8
20260506233503 65 293 9.0 15.0 0.00 0.00 0.00 71 1017.6
20260506233003 65 299 9.0 15.0 0.00 0.00 0.00 70 1017.5
20260506232503 65 299 8.0 15.0 0.00 0.00 0.00 70 1017.7
20260506232003 65 284 9.0 16.0 0.00 0.00 0.00 72 1017.8
20260506231503 65 281 8.0 16.0 0.00 0.00 0.00 71 1017.9
20260506231003 65 281 8.0 17.0 0.00 0.00 0.00 72 1017.9
20260506230503 64 284 10.0 19.0 0.00 0.00 0.00 72 1018.0
20260506230003 64 304 10.0 19.0 0.00 0.00 0.00 72 1018.1
20260506225503 65 308 10.0 16.0 0.00 0.00 0.00 72 1018.2
20260506225003 65 300 9.0 17.0 0.00 0.00 0.00 71 1018.1
20260506224503 66 309 9.0 17.0 0.00 0.00 0.00 71 1018.1
20260506224003 66 309 9.0 17.0 0.00 0.00 0.00 72 1018.2
20260506223524 66 298 9.0 16.0 0.00 0.00 0.00 71 1018.4
20260506223003 66 297 9.0 17.0 0.00 0.00 0.00 71 1018.5
20260506222503 66 297 10.0 19.0 0.00 0.00 0.00 70 1018.4
20260506222003 66 298 9.0 19.0 0.00 0.00 0.00 70 1018.4
20260506221504 66 312 9.0 19.0 0.00 0.00 0.00 71 1018.6
20260506221003 66 323 10.0 19.0 0.00 0.00 0.00 71 1018.7
20260506220503 65 323 10.0 18.0 0.00 0.00 0.00 71 1018.6
20260506220003 66 318 11.0 19.0 0.00 0.00 0.00 71 1018.6
20260506215503 66 318 10.0 19.0 0.00 0.00 0.00 71 1018.6
20260506215003 66 320 10.0 19.0 0.00 0.00 0.00 70 1018.6
20260506214503 66 320 10.0 19.0 0.00 0.00 0.00 70 1018.6
20260506214024 66 312 9.0 17.0 0.00 0.00 0.00 69 1018.7
20260506213524 67 309 9.0 17.0 0.00 0.00 0.00 69 1018.8
20260506213003 66 315 9.0 17.0 0.00 0.00 0.00 70 1018.8
20260506212503 67 316 8.0 17.0 0.00 0.00 0.00 68 1019.0
20260506212024 67 313 9.0 16.0 0.00 0.00 0.00 69 1018.9
20260506211503 68 312 9.0 17.0 0.00 0.00 0.00 67 1019.0
20260506211003 69 309 7.0 17.0 0.00 0.00 0.00 66 1019.0
20260506210503 69 307 7.0 13.0 0.00 0.00 0.00 66 1018.9
20260506210003 69 311 7.0 13.0 0.00 0.00 0.00 66 1018.9
20260506205503 69 311 6.0 14.0 0.00 0.00 0.00 65 1019.0
20260506205003 69 307 6.0 14.0 0.00 0.00 0.00 65 1019.1
20260506204524 69 306 6.0 12.0 0.00 0.00 0.00 64 1019.2
20260506204003 69 304 6.0 12.0 0.00 0.00 0.00 66 1019.2
20260506203503 69 306 7.0 12.0 0.00 0.00 0.00 66 1019.3
20260506203003 68 316 7.0 12.0 0.00 0.00 0.00 65 1019.4
20260506202503 68 322 6.0 12.0 0.00 0.00 0.00 66 1019.4
20260506202003 68 322 6.0 12.0 0.00 0.00 0.00 66 1019.5
20260506201503 68 326 7.0 12.0 0.00 0.00 0.00 67 1019.5
20260506201003 67 327 7.0 12.0 0.00 0.00 0.00 66 1019.5
20260506200503 68 320 6.0 11.0 0.00 0.00 0.00 66 1019.5
20260506200003 68 321 6.0 11.0 0.00 0.00 0.00 65 1019.6
20260506195503 68 310 6.0 11.0 0.00 0.00 0.00 64 1019.6
20260506195003 68 309 5.0 11.0 0.00 0.00 0.00 64 1019.7
20260506194503 68 328 4.0 10.0 0.00 0.00 0.00 66 1019.9
20260506194003 67 331 5.0 10.0 0.00 0.00 0.00 66 1019.8
20260506193503 67 338 5.0 10.0 0.00 0.00 0.00 67 1019.9
20260506193003 67 352 4.0 10.0 0.00 0.00 0.00 66 1019.9
20260506192524 67 349 4.0 10.0 0.00 0.00 0.00 67 1019.9
20260506192003 66 326 5.0 10.0 0.00 0.00 0.00 67 1020.0
20260506191503 66 310 5.0 10.0 0.00 0.00 0.00 68 1020.0
20260506191003 66 324 5.0 9.0 0.00 0.00 0.00 68 1020.2
20260506190524 66 342 4.0 9.0 0.00 0.00 0.00 67 1020.2
20260506190004 66 5 4.0 8.0 0.00 0.00 0.00 68 1020.2
20260506185503 66 19 4.0 9.0 0.00 0.00 0.00 68 1020.2
20260506185003 66 17 4.0 9.0 0.00 0.00 0.00 67 1020.2
20260506184503 66 12 4.0 9.0 0.00 0.00 0.00 68 1020.3
20260506184003 66 6 4.0 8.0 0.00 0.00 0.00 68 1020.3
20260506183503 65 356 4.0 8.0 0.00 0.00 0.00 69 1020.2
20260506183004 65 3 4.0 9.0 0.00 0.00 0.00 70 1020.3
20260506182503 65 15 4.0 9.0 0.00 0.00 0.00 69 1020.3
20260506182003 65 18 4.0 8.0 0.00 0.00 0.00 71 1020.4
20260506181503 65 26 4.0 9.0 0.00 0.00 0.00 71 1020.3
20260506181024 64 23 5.0 10.0 0.00 0.00 0.00 71 1020.2
20260506180503 64 20 5.0 10.0 0.00 0.00 0.00 72 1020.3
20260506180004 64 6 4.0 9.0 0.00 0.00 0.00 72 1020.3
20260506175503 63 355 4.0 8.0 0.00 0.00 0.00 72 1020.3
20260506175024 63 352 4.0 9.0 0.00 0.00 0.00 72 1020.2
20260506174503 62 337 5.0 9.0 0.00 0.00 0.00 72 1020.3
20260506174003 62 335 5.0 9.0 0.00 0.00 0.00 72 1020.4
20260506173524 62 335 5.0 9.0 0.00 0.00 0.00 72 1020.3
20260506173003 62 335 4.0 9.0 0.00 0.00 0.00 73 1020.4
20260506172503 62 333 4.0 9.0 0.00 0.00 0.00 73 1020.3
20260506172003 62 338 4.0 9.0 0.00 0.00 0.00 73 1020.4
20260506171503 62 338 4.0 8.0 0.00 0.00 0.00 73 1020.4
20260506171024 62 330 5.0 8.0 0.00 0.00 0.00 73 1020.4
20260506170503 62 325 5.0 8.0 0.00 0.00 0.00 74 1020.6
20260506170003 62 322 4.0 8.0 0.00 0.00 0.00 73 1020.5
20260506165503 62 323 4.0 8.0 0.00 0.00 0.00 73 1020.5
20260506165003 62 315 3.0 7.0 0.00 0.00 0.00 73 1020.6
20260506164503 62 321 3.0 7.0 0.00 0.00 0.00 73 1020.5
20260506164003 62 317 3.0 7.0 0.00 0.00 0.00 72 1020.5
20260506163503 62 312 3.0 7.0 0.00 0.00 0.00 73 1020.5
20260506163003 62 306 2.0 8.0 0.00 0.00 0.00 74 1020.4
20260506162503 61 292 2.0 8.0 0.00 0.00 0.00 75 1020.5
20260506162003 60 287 2.0 7.0 0.00 0.00 0.00 77 1020.5
20260506161503 60 302 3.0 6.0 0.00 0.00 0.00 76 1020.6
20260506161003 59 304 3.0 6.0 0.00 0.00 0.00 76 1020.5
20260506160503 59 274 3.0 7.0 0.00 0.00 0.00 76 1020.6
20260506160003 59 266 2.0 7.0 0.00 0.00 0.00 76 1020.5
20260506155503 59 260 2.0 4.0 0.00 0.00 0.00 77 1020.6
20260506155003 58 225 2.0 5.0 0.00 0.00 0.00 77 1020.5
20260506154503 58 191 2.0 5.0 0.00 0.00 0.00 77 1020.5
20260506154024 58 204 3.0 7.0 0.00 0.00 0.00 77 1020.5
20260506153503 58 223 2.0 7.0 0.00 0.00 0.00 77 1020.5
20260506153003 58 252 2.0 6.0 0.00 0.00 0.00 78 1020.5
20260506152503 58 246 3.0 6.0 0.00 0.00 0.00 78 1020.4
20260506152003 58 240 3.0 6.0 0.00 0.00 0.00 79 1020.3
20260506151503 58 254 2.0 6.0 0.00 0.00 0.00 79 1020.4
20260506151003 58 265 3.0 6.0 0.00 0.00 0.00 80 1020.4
20260506150503 58 272 3.0 7.0 0.00 0.00 0.00 80 1020.3
20260506150003 57 269 4.0 7.0 0.00 0.00 0.00 80 1020.3
20260506145503 57 258 3.0 7.0 0.00 0.00 0.00 80 1020.3
20260506145003 57 245 3.0 6.0 0.00 0.00 0.00 81 1020.4
20260506144503 57 248 3.0 5.0 0.00 0.00 0.00 81 1020.4
20260506144003 57 254 3.0 4.0 0.00 0.00 0.00 81 1020.2
20260506143503 57 246 2.0 4.0 0.00 0.00 0.00 82 1020.4
20260506143003 57 237 1.0 4.0 0.00 0.00 0.00 82 1020.3
20260506142503 57 237 1.0 3.0 0.00 0.00 0.00 82 1020.2
20260506142003 57 245 1.0 3.0 0.00 0.00 0.00 82 1020.1
20260506141503 57 269 1.0 4.0 0.00 0.00 0.00 82 1020.1
20260506141003 57 269 2.0 4.0 0.00 0.00 0.00 83 1019.9
20260506140503 57 268 2.0 4.0 0.00 0.00 0.00 83 1019.8
20260506140003 56 266 1.0 4.0 0.00 0.00 0.00 83 1019.8
20260506135524 56 263 1.0 4.0 0.00 0.00 0.00 83 1019.7
20260506135003 56 272 1.0 3.0 0.00 0.00 0.00 83 1019.7
20260506134503 56 272 2.0 3.0 0.00 0.00 0.00 83 1019.6
20260506134003 56 272 2.0 4.0 0.00 0.00 0.00 83 1019.7
20260506133503 56 274 2.0 4.0 0.00 0.00 0.00 83 1019.6
20260506133024 56 273 2.0 4.0 0.00 0.00 0.00 83 1019.5
20260506132503 56 271 2.0 4.0 0.00 0.00 0.00 83 1019.5
20260506132003 56 272 1.0 4.0 0.00 0.00 0.00 83 1019.4
20260506131524 56 267 2.0 4.0 0.00 0.00 0.00 83 1019.4
20260506131003 56 266 2.0 4.0 0.00 0.00 0.00 83 1019.3
20260506130503 56 271 1.0 4.0 0.00 0.00 0.00 83 1019.4
20260506130003 56 274 1.0 4.0 0.00 0.00 0.00 83 1019.4
20260506125503 56 277 1.0 4.0 0.00 0.00 0.00 83 1019.3
20260506125003 56 273 2.0 4.0 0.00 0.00 0.00 82 1019.3
20260506124524 56 272 2.0 3.0 0.00 0.00 0.00 82 1019.1
20260506124003 56 282 2.0 4.0 0.00 0.00 0.00 82 1019.1
20260506123503 56 301 2.0 4.0 0.00 0.00 0.00 82 1019.2
20260506123003 56 309 2.0 6.0 0.00 0.00 0.00 82 1019.2
20260506122524 56 308 3.0 6.0 0.00 0.00 0.00 82 1019.1
20260506122003 56 319 3.0 8.0 0.00 0.00 0.00 82 1019.2
20260506121503 56 321 3.0 6.0 0.00 0.00 0.00 82 1019.1
20260506121003 56 317 3.0 6.0 0.00 0.00 0.00 82 1019.1
20260506120503 56 317 2.0 6.0 0.00 0.00 0.00 83 1019.1
20260506120003 56 312 1.0 6.0 0.00 0.00 0.00 83 1019.0
20260506115503 56 288 1.0 6.0 0.00 0.00 0.00 82 1019.0
20260506115003 56 292 2.0 6.0 0.00 0.00 0.00 83 1019.0
20260506114503 56 303 1.0 4.0 0.00 0.01 0.00 83 1019.0
20260506114003 56 285 1.0 7.0 0.00 0.01 0.00 83 1019.1
20260506113503 56 282 2.0 7.0 0.00 0.01 0.00 83 1019.1
20260506113003 56 277 2.0 6.0 0.00 0.01 0.00 83 1018.9
20260506112503 56 269 2.0 6.0 0.00 0.01 0.00 83 1019.0
20260506112003 56 272 1.0 4.0 0.00 0.01 0.00 83 1019.0
20260506111503 56 287 1.0 4.0 0.00 0.01 0.00 83 1019.0
20260506111004 56 297 1.0 6.0 0.00 0.01 0.00 83 1018.9
20260506110503 56 295 1.0 6.0 0.00 0.01 0.00 83 1018.9
20260506110003 56 276 1.0 4.0 0.00 0.01 0.00 83 1019.0
20260506105503 56 273 1.0 3.0 0.00 0.01 0.00 83 1018.8
20260506105003 56 268 1.0 3.0 0.00 0.01 0.00 83 1018.8
20260506104503 56 268 1.0 3.0 0.00 0.01 0.00 83 1018.7
20260506104003 56 271 1.0 3.0 0.00 0.01 0.00 83 1018.8
20260506103524 56 295 0.0 2.0 0.00 0.01 0.00 83 1018.8
20260506103003 57 256 0.0 1.0 0.00 0.01 0.00 83 1018.8
20260506102524 57 256 0.0 1.0 0.00 0.01 0.00 83 1018.7
20260506102003 57 0 0.0 3.0 0.00 0.01 0.00 83 1018.7
20260506101503 57 256 0.0 3.0 0.00 0.01 0.00 83 1018.7
20260506101003 57 261 1.0 3.0 0.00 0.01 0.00 83 1018.7
20260506100503 57 262 1.0 4.0 0.00 0.01 0.00 83 1018.7
20260506100003 57 262 1.0 4.0 0.00 0.01 0.00 83 1018.6
20260506095503 57 283 1.0 4.0 0.00 0.01 0.00 83 1018.7
20260506095003 57 283 1.0 4.0 0.00 0.01 0.00 83 1018.7
20260506094503 57 280 1.0 4.0 0.00 0.01 0.00 83 1018.8
20260506094003 57 282 1.0 4.0 0.00 0.01 0.00 83 1018.7
20260506093524 57 288 1.0 4.0 0.00 0.01 0.00 83 1018.7
20260506093003 57 279 0.0 3.0 0.00 0.01 0.00 83 1018.8
20260506092503 57 283 1.0 3.0 0.00 0.01 0.00 83 1018.6
20260506092003 57 305 1.0 4.0 0.00 0.01 0.00 83 1018.7
20260506091503 57 311 1.0 4.0 0.00 0.01 0.00 82 1018.6
20260506091003 57 280 0.0 2.0 0.00 0.01 0.00 82 1018.6
20260506090503 57 279 1.0 2.0 0.00 0.02 0.00 82 1018.6
20260506090034 57 279 1.0 2.0 0.00 0.02 0.00 82 1018.6
20260506085503 57 269 0.0 5.0 0.00 0.03 0.00 82 1018.7
20260506085003 57 267 1.0 5.0 0.00 0.04 0.00 82 1018.6
20260506084503 57 268 2.0 5.0 0.00 0.05 0.00 82 1018.5
20260506084003 57 270 2.0 5.0 0.00 0.06 0.00 82 1018.6
20260506083503 57 263 2.0 6.0 0.00 0.06 0.00 82 1018.7
20260506083003 57 262 3.0 6.0 0.00 0.06 0.00 82 1018.7
20260506082503 57 265 2.0 6.0 0.00 0.06 0.00 82 1018.6
20260506082003 57 265 2.0 5.0 0.00 0.06 0.00 82 1018.7
20260506081503 57 266 2.0 5.0 0.00 0.06 0.00 82 1018.7
20260506081024 57 271 2.0 4.0 0.00 0.06 0.00 82 1018.6
20260506080503 57 268 2.0 6.0 0.00 0.06 0.00 82 1018.7
20260506073503 57 266 2.0 4.0 0.00 0.08 0.00 83 1018.4
20260506073003 56 274 1.0 4.0 0.00 0.08 0.00 83 1018.4
20260506072503 56 289 0.0 4.0 0.00 0.08 0.00 83 1018.4
20260506072003 56 248 0.0 1.0 0.00 0.09 0.00 83 1018.4
20260506071503 56 248 0.0 1.0 0.00 0.09 0.00 83 1018.4
20260506071003 56 248 0.0 2.0 0.00 0.09 0.00 83 1018.3
20260506070503 56 248 0.0 2.0 0.00 0.09 0.00 83 1018.2
20260506062503 56 237 0.0 2.0 0.00 0.09 0.09 82 1018.2
20260506062003 56 237 0.0 1.0 0.00 0.09 0.09 82 1018.2
20260506061503 56 237 0.0 1.0 0.00 0.09 0.09 82 1018.2
20260506061003 56 0 0.0 2.0 0.00 0.09 0.09 82 1017.9
20260506060503 56 0 0.0 2.0 0.00 0.09 0.09 82 1017.9
20260506051003 57 266 1.0 3.0 0.00 0.09 0.09 80 1017.7
20260506050503 57 268 2.0 3.0 0.00 0.09 0.09 80 1017.6
20260506045003 57 268 2.0 5.0 0.00 0.09 0.09 80 1017.4
20260506044503 57 275 2.0 5.0 0.00 0.09 0.09 80 1017.4
20260506044003 57 276 2.0 4.0 0.00 0.09 0.09 79 1017.4
20260506043503 57 273 2.0 4.0 0.00 0.09 0.09 79 1017.3
20260506043003 58 274 2.0 4.0 0.00 0.09 0.09 79 1017.4
20260506042503 58 264 2.0 4.0 0.00 0.09 0.09 79 1017.2
20260506042003 58 264 3.0 7.0 0.00 0.09 0.09 79 1017.3
20260506041503 58 269 3.0 7.0 0.00 0.09 0.09 79 1017.2
20260506041003 58 269 3.0 6.0 0.00 0.09 0.09 78 1017.1
20260506040503 58 269 3.0 7.0 0.00 0.09 0.09 78 1017.1
20260506040003 58 266 4.0 7.0 0.00 0.09 0.09 78 1016.8
20260506035503 58 264 4.0 7.0 0.00 0.09 0.09 77 1016.7
20260506035003 58 263 4.0 7.0 0.00 0.09 0.09 77 1016.5
20260506034503 58 260 3.0 7.0 0.00 0.09 0.09 77 1016.5
20260506034003 58 254 3.0 8.0 0.00 0.09 0.09 77 1016.3
20260506033503 58 261 4.0 9.0 0.00 0.09 0.09 76 1016.3
20260506033003 58 268 5.0 9.0 0.00 0.09 0.09 76 1016.3
20260506032503 58 268 5.0 8.0 0.00 0.09 0.09 76 1016.3
20260506032003 58 259 5.0 8.0 0.00 0.09 0.09 76 1016.1
20260506031524 58 250 5.0 11.0 0.00 0.09 0.09 75 1016.3
20260506031003 59 248 5.0 11.0 0.00 0.09 0.09 75 1016.1
20260506030503 59 256 6.0 11.0 0.00 0.09 0.09 75 1016.2
20260506030003 59 264 6.0 11.0 0.00 0.09 0.09 74 1016.1
20260506025503 59 271 6.0 11.0 0.00 0.09 0.09 74 1016.1
20260506025003 59 276 7.0 11.0 0.00 0.09 0.09 74 1016.0
20260506024503 59 264 6.0 13.0 0.00 0.09 0.09 73 1016.0
20260506024003 59 262 6.0 13.0 0.00 0.09 0.09 73 1015.9
20260506023503 59 267 8.0 13.0 0.00 0.09 0.09 73 1015.9
20260506023003 60 261 8.0 13.0 0.00 0.09 0.09 73 1015.9
20260506022503 60 258 9.0 13.0 0.00 0.09 0.09 73 1015.8
20260506022003 60 254 9.0 17.0 0.00 0.09 0.09 74 1015.7
20260506021503 60 249 9.0 17.0 0.00 0.09 0.09 73 1015.8
20260506021003 60 252 10.0 15.0 0.00 0.09 0.09 73 1015.7
20260506020503 61 256 10.0 15.0 0.00 0.09 0.09 73 1015.8
20260506020003 61 255 9.0 15.0 0.00 0.09 0.09 72 1015.7
20260506015503 61 249 9.0 15.0 0.00 0.09 0.09 72 1015.6